Flag for Finland Weather past 2 weeks in Helsinki, Finland

Now
64 °F

Passing clouds.


Feels Like: 64 °F
Forecast: 57 / 65 °F
Wind: 7 mph from Northwest

Location: Helsinki Malmi Airport

Current Time: Jul 5, 2015 at 9:50:52 AM

Latest Report: Jul 5, 2015 at 8:50 AM


Visibility: N/A

Pressure: 30.04 "Hg

Humidity: 68%

Dew point: 54 °F

Location of HelsinkiLocation

Historic Weather in Helsinki — Graph

°F

Helsinki temperature yesterday

Maximum temperature yesterday: 82 °F (at 5:20 PM)
Minimum temperature yesterday: 61 °F (at 2:20 AM)
Average temperature yesterday: 72 °F

Past Weeks' High & Low Weather Summary

 TemperatureHumidityPressure
High84 °F (Jul 3, 12:50 PM)100% (Jun 20, 3:50 PM)30.33 "Hg (Jun 20, 3:50 PM)
Low46 °F (Jun 23, 3:20 AM)36% (Jun 29, 4:50 PM)29.65 "Hg (Jun 24, 7:20 AM)
Average61 °F74%29.94 "Hg
* Reported Jun 20 8:20 AM — Jul 5 8:50 AM, Helsinki, Weather by CustomWeather, © 2015

Note: Actual official high and low records may vary slightly from our data, if they occured in-between our weather recording intervals... More about our weather records

Advertising

Helsinki weather history for previous 24 hours

 ConditionsComfort  
Time TempWeatherWind HumidityBarometerVisibility
8:50 AM
Sun, Jul 5
64 °FPassing clouds.7 mph68%30.04 "HgN/A
8:20 AM64 °FPassing clouds.7 mph73%30.04 "HgN/A
7:50 AM63 °FPassing clouds.7 mph77%30.04 "HgN/A
7:20 AM63 °FPassing clouds.5 mph77%30.04 "HgN/A
6:50 AM61 °FPassing clouds.5 mph77%30.04 "HgN/A
6:20 AM61 °FSunny.5 mph77%30.04 "Hg10 mi
5:50 AM59 °FSunny.5 mph82%30.04 "Hg10 mi
5:20 AM57 °FSunny.6 mph82%30.04 "Hg10 mi
4:50 AM57 °FPassing clouds.5 mph82%30.04 "HgN/A
4:20 AM59 °FPassing clouds.5 mph77%30.01 "HgN/A
3:50 AM59 °FClear.6 mph77%30.01 "Hg10 mi
3:20 AM59 °FClear.5 mph77%30.01 "Hg10 mi
2:50 AM59 °FPassing clouds.7 mph77%30.01 "HgN/A
2:20 AM61 °FClear.8 mph72%30.01 "Hg10 mi
1:50 AM63 °FPassing clouds.9 mph68%30.01 "HgN/A
1:20 AM63 °FPassing clouds.8 mph68%30.01 "HgN/A
12:50 AM64 °FPassing clouds.8 mph64%30.01 "HgN/A
12:20 AM66 °FPassing clouds.10 mph60%29.98 "HgN/A
11:50 PM
Sat, Jul 4
66 °FPassing clouds.10 mph60%29.98 "HgN/A
11:20 PM68 °FPassing clouds.8 mph56%29.98 "HgN/A
10:50 PM70 °FPassing clouds.10 mph53%29.98 "HgN/A
10:20 PM72 °FPassing clouds.10 mph50%29.98 "HgN/A
9:50 PM73 °FPassing clouds.10 mph44%29.95 "HgN/A
9:20 PM75 °FPassing clouds.13 mph41%29.95 "HgN/A
8:50 PM77 °FPassing clouds.13 mph44%29.95 "HgN/A
8:20 PM79 °FPassing clouds.13 mph45%29.95 "HgN/A
7:50 PM79 °FPassing clouds.13 mph45%29.95 "HgN/A
7:20 PM81 °FPassing clouds.13 mph42%29.95 "HgN/A
6:50 PM81 °FPassing clouds.13 mph42%29.95 "HgN/A
6:20 PM81 °FPassing clouds.15 mph42%29.98 "HgN/A
5:50 PM82 °FPassing clouds.12 mph45%29.98 "HgN/A
5:20 PM82 °FPassing clouds.9 mph48%29.98 "HgN/A
4:50 PM79 °FPassing clouds.8 mph58%29.98 "HgN/A
4:20 PM79 °FPassing clouds.8 mph61%29.98 "HgN/A
3:50 PM77 °FPassing clouds.10 mph61%30.01 "HgN/A
3:20 PM75 °FPassing clouds.12 mph65%30.01 "HgN/A
2:50 PM77 °FSunny.12 mph61%30.01 "Hg10 mi
2:20 PM79 °FPassing clouds.10 mph58%30.01 "HgN/A
1:50 PM81 °FPassing clouds.9 mph48%30.01 "HgN/A
1:20 PM81 °FPassing clouds.9 mph51%30.01 "HgN/A
12:50 PM79 °FSunny.7 mph58%30.01 "Hg10 mi
12:20 PM77 °FPassing clouds.7 mph57%30.01 "HgN/A
11:50 AM77 °FPassing clouds.8 mph57%30.01 "HgN/A
11:20 AM75 °FPassing clouds.7 mph61%30.01 "HgN/A
10:50 AM75 °FPassing clouds.8 mph57%30.01 "HgN/A
10:20 AM75 °FPassing clouds.7 mph61%30.01 "HgN/A
9:50 AM73 °FPassing clouds.7 mph65%30.01 "HgN/A
9:20 AM73 °FPassing clouds.7 mph65%30.01 "HgN/A
Weather by CustomWeather, © 2015

See weather overviewHow to use our weather pages